Location: Équennes
(49.7375°N, 1.9622°E)
Time: 19:00:49
(UTC+00:00)

Cosmos 2278 - Pass Details

Date: 26 September 2023
Orbit: 838 x 853 km, 71.1° (Epoch: 08 December)

Event Time Altitude Azimuth Distance (km) Brightness Sun altitude
Rises 18:22:46 0° 232° (SW) 3,391 7.6 -7.4°
Reaches altitude 10° 18:25:21 10° 240° (WSW) 2,462 7.0 -7.8°
Maximum altitude 18:30:39 40° 309° (NW) 1,235 5.2 -8.6°
Drops below altitude 10° 18:36:00 10° 19° (NNE) 2,484 6.1 -9.5°
Sets 18:38:37 0° 27° (NNE) 3,425 6.7 -9.9°
